Hlavní strana
METAR-TAF:

METAR-TAF

Letiště :

Curtis L. Brown Jr. Field

Elizabethtown, Severní Karolína, Spojené státy americké

zeměpisná šířka: 34-36N, zeměpisná délka: 078-35W, výška: 40 m

Aktuální stav počasí

Zpráva byla vytvořena před 15 minutami, v 17:35 UTC
Západoseverozápadní vítr 3 kt
Teplota 32°C
Vlhkost vzduchu 46%
Tlak 1014 hPa
Viditelnost: 16.1 km
Polojasno ve výšce 5500 ft

METAR: KEYF 031735Z AUTO 29003KT 10SM SCT055 32/19 A2995 RMK AO2 T03170185

Čas: 13:50 (17:50 UTC)


TAF: chybějící

Stav a předpovědi počasí z více než 4 000 letišť (zprávy METAR a TAF).

Červené a žluté tečky na mapě představují dostupné meteorologické stanice.

Když kurzor umístíte na tečku, zobrazí se název stanice.

Pak kliknutím zobrazíte stav a předpověď počasí.

Chcete-li změnit mapu, kliknutím na zelené tlačítko se znaménkem +mapu přiblížíte, kliknutím na zelené tlačítko se znaménkem – mapu oddálíte a kliknutím na zelené šipky přejdete na sousední mapy.


METAR-TAF: